Location: Newark
(41.0400°S, 62.7845°W)
Time: 01:00:58
(UTC+00:00)

Altair - Visible Passes

Search period start: 07 December 2021 00:00
Search period end: 17 December 2021 00:00
Orbit: 1502 x 1682 km, 47.2° (Epoch: 05 December)

Date Brightness Start Highest point End Pass type
(mag) Time Alt. Az. Time Alt. Az. Time Alt. Az.
07 Dec 8.2 05:14:48 29° NNE 05:17:34 34° NE 05:26:07 10° ESE visible
07 Dec 7.6 07:12:46 14° WNW 07:21:33 88° NNE 07:31:43 10° ESE visible
08 Dec 8.3 04:50:39 29° NNE 04:52:30 31° NE 05:00:43 10° ESE visible
08 Dec 7.6 06:48:38 18° NW 06:56:21 84° NNE 07:06:28 10° ESE visible
09 Dec 8.4 04:26:27 28° NE 04:27:26 28° NE 04:35:19 10° ESE visible
09 Dec 7.6 06:24:26 23° NW 06:31:09 80° NNE 06:41:13 10° ESE visible
10 Dec 8.5 04:02:11 26° NE 04:02:23 26° NE 04:09:52 10° ESE visible
10 Dec 7.5 06:00:10 28° NW 06:05:58 76° NNE 06:15:58 10° ESE visible
11 Dec 8.6 03:37:52 23° ENE 03:37:52 23° ENE 03:44:23 10° E visible
11 Dec 7.5 05:35:50 33° NW 05:40:47 71° NE 05:50:42 10° ESE visible
11 Dec 8.0 07:36:13 10° W 07:45:56 66° SSW 07:56:03 10° ESE visible
12 Dec 8.7 03:13:28 20° ENE 03:13:28 20° ENE 03:18:49 10° E visible
12 Dec 7.5 05:11:26 37° NNW 05:15:37 67° NE 05:25:27 10° ESE visible
12 Dec 7.9 07:10:58 10° W 07:20:40 67° SSW 07:30:45 10° ESE visible
13 Dec 8.8 02:48:59 17° ENE 02:48:59 17° ENE 02:53:12 10° E visible
13 Dec 7.5 04:46:57 41° NNW 04:50:29 63° NE 05:00:11 10° ESE visible
13 Dec 7.9 06:45:43 10° W 06:55:23 69° SSW 07:05:28 10° ESE visible
14 Dec 8.9 02:24:24 15° ENE 02:24:24 15° ENE 02:27:28 10° E visible
14 Dec 7.5 04:22:21 43° NNW 04:25:20 58° NE 04:34:55 10° ESE visible
14 Dec 7.8 06:20:29 10° WNW 06:30:07 71° SSW 06:40:11 10° ESE visible
15 Dec 9.0 01:59:41 13° ENE 01:59:41 13° ENE 02:01:34 10° E visible
15 Dec 7.6 03:57:37 44° N 04:00:13 54° NE 04:09:39 10° ESE visible
15 Dec 7.7 05:55:33 11° WNW 06:04:52 74° SSW 06:14:55 10° ESE visible
16 Dec 9.1 01:34:47 11° ENE 01:34:47 11° ENE 01:35:21 10° E visible
16 Dec 7.6 03:32:42 42° N 03:35:06 50° NE 03:44:22 10° ESE visible
16 Dec 7.7 05:30:37 12° WNW 05:39:37 76° SSW 05:49:38 10° ESE visible
16 Dec 8.2 07:35:45 10° WSW 07:45:26 62° S 07:55:28 10° E visible
